Regional Weather Roundup
Issued by NWS

Home | Current Version | Previous Version | Graphics & Text | Print | Product List | Glossary Off
Versions: 1 2 3 4 5 6 7 8 9 10 11 12 13 14 15 16 17 18 19 20 21 22 23 24 25 26 27 28 29 30 31 32 33 34 35 36 37 38 39 40 41 42 43 44 45 46 47 48 49 50

000
ASUS43 KMKX 250800
RWRWI

WISCONSIN REGIONAL WEATHER ROUNDUP
NATIONAL WEATHER SERVICE MILWAUKEE/SULLIVAN WI
300 AM CDT MON SEP 25 2017

NOTE: "FAIR" INDICATES FEW OR NO CLOUDS BELOW 12,000 FEET WITH NO
SIGNIFICANT WEATHER AND/OR OBSTRUCTIONS TO VISIBILITY.

WIZ001-002-006>008-014>016-023>028-250900-
NORTHWEST WISCONSIN

CITY           SKY/WX    TMP DP  RH WIND       PRES   REMARKS
SUPERIOR ARPT  MOCLDY    65  65 100 SW5       29.90R
ASHLAND        LGT RAIN  68  65  90 SW5       29.90S
HAYWARD        LGT RAIN  69  65  86 SW5       29.94R
SIREN          CLOUDY    67  65  96 W7        29.94S
CUMBERLAND     RAIN      66  64  94 W5        29.95F
RICE LAKE      LGT RAIN  68  65  92 CALM      29.95F
CHETEK         MOCLDY    71  65  83 CALM      29.94S
LADYSMITH      CLOUDY    69  62  78 CALM      29.95F
EAU CLAIRE     NOT AVBL
MENOMONIE      MOCLDY    71  64  78 SE3       29.94R
NEW RICHMOND   CLOUDY    67  66  97 CALM      29.94S
OSCEOLA        MOCLDY    67  67 100 CALM      29.97S
$$

WIZ003>005-009-010-017-018-250900-
NORTH CENTRAL WISCONSIN

CITY           SKY/WX    TMP DP  RH WIND       PRES   REMARKS
MANITOWISH WTR NOT AVBL
ARBOR VITAE    CLEAR     72  64  74 S6        29.96S
WOODRUFF       CLEAR     72  64  74 S6        29.96S
RHINELANDER    CLEAR     70  61  73 SW6       29.98S
EAGLE RIVER    CLEAR     65  57  75 CALM      29.96F
LAND O LAKES   CLEAR     68  59  73 S3        29.98S
PHILLIPS       PTCLDY    67  62  83 S3        29.96R
TOMAHAWK       CLEAR     62  58  87 CALM      29.97S
MEDFORD        PTCLDY    62  59  88 S3        29.97S
MERRILL        CLEAR     65  61  85 S5        29.97F
$$

WIZ029-030-035-036-043>047-250900-
CENTRAL WISCONSIN

CITY           SKY/WX    TMP DP  RH WIND       PRES   REMARKS
WAUSAU         CLEAR     64  60  87 SE5       29.96S
MOSINEE        CLEAR     64  59  82 SE6       29.98F
MARSHFIELD     CLEAR     65  59  81 S5        29.96F
STEVENS POINT  CLEAR     61  60  99 CALM      29.98S
WAUPACA        CLEAR     65  64  96 CALM      29.98S
WAUTOMA        CLEAR     61  60  97 CALM      29.98F
WISC RAPIDS    CLEAR     64  60  87 CALM      29.97F
CAMP DOUGLAS   NOT AVBL
$$

WIZ011>013-019>022-031-037>040-048>050-250900-
NORTHEAST WISCONSIN

CITY           SKY/WX    TMP DP  RH WIND       PRES   REMARKS
ANTIGO         CLEAR     63  60  90 S5        29.99S
SHAWANO        CLEAR     69  62  78 CALM      29.97S
OCONTO         CLEAR     64  60  87 CALM      29.97S
STURGEON BAY   CLEAR     70  60  70 S8        29.99S
GREEN BAY      CLEAR     67  62  84 S5        29.98S
MANITOWOC      CLEAR     66  62  87 CALM      30.00S
APPLETON       CLEAR     68  55  64 S5        29.97F
CLINTONVILLE   CLEAR     64  61  88 CALM      29.98S
OSHKOSH        CLEAR     66  60  81 S6        29.97F
$$

WIZ032>034-041-042-053>061-250900-
SOUTHWEST WISCONSIN

CITY           SKY/WX    TMP DP  RH WIND       PRES   REMARKS
LA CROSSE      CLEAR     72  66  81 W5        29.94R
SPARTA         CLEAR     63  60  90 CALM      29.96S
VIROQUA        CLEAR     69  63  81 S6        29.97F
BOSCOBEL       CLEAR     64  62  93 CALM      29.96S FOG
PRAIRIE DU CHI CLEAR     69  61  76 CALM      29.95S
PLATTEVILLE    CLEAR     69  63  80 SE7       29.98S
$$

WIZ056-057-062-063-064-067-068-250900-
SOUTH CENTRAL WISCONSIN

CITY           SKY/WX    TMP DP  RH WIND       PRES   REMARKS
REEDSBURG      CLEAR     67  62  82 CALM      29.97S
BARABOO/DELLS  MOCLDY    68  60  75 S5        29.97F
LONE ROCK      NOT AVBL
MINERAL POINT  CLEAR     70  63  78 SE5       29.99S
MADISON        CLEAR     64  61  90 CALM      29.98S
MIDDLETON      CLEAR     63  61  94 CALM      29.99F
WATERTOWN      CLEAR     64  62  91 CALM      29.99S
MONROE         CLEAR     70  57  64 S7        29.99S
JANESVILLE     CLEAR     66  59  77 CALM      29.98S
$$

WIZ051-052-058>065-066-070>072-250900-
SOUTHEAST WISCONSIN

CITY           SKY/WX    TMP DP  RH WIND       PRES   REMARKS
MILWAUKEE      CLEAR     69  64  84 CALM      29.99S
WAUKESHA       CLEAR     63  59  88 CALM      30.01F
MILWAUKEE/TIMM CLEAR     64  57  77 CALM      30.01S
RACINE         CLEAR     71  67  87 S3        30.01S
BURLINGTON     CLEAR     60  60 100 CALM      30.00S
KENOSHA        CLEAR     64  61  90 CALM      30.00S
FOND DU LAC    CLEAR     66  59  78 S5        29.98F
SHEBOYGAN      CLEAR     60  60 100 CALM      29.99F
WEST BEND        N/A     61  59  94 CALM      30.00F
JUNEAU         CLEAR     65  59  80 CALM      30.00F
$$

LSZ147-162-250900-
LAKE SUPERIOR

STATION/POSITION TIME  TEMP    WIND        PRES    WAVE
                       AIR SEA DIR/SP/G            HT/PER
                 (UTC) (F)     (DEG/KT/KT) (MB)    (FT/S)
W MID LAKE BUOY  0650   61 55  210/  6/  6 1010.6S   1
DEVILS ISLAND    0700   68     230/ 12/ 13 1011.6R
PORT WING        0730   68     190/  4/  5 1011.9F
SAXON HARBOR     0730   76     200/  5/  9 1011.5R
$$

LMZ867-665-643>646-250900-
LAKE MICHIGAN

STATION/POSITION TIME  TEMP    WIND        PRES    WAVE
                       AIR SEA DIR/SP/G            HT/PER
                 (UTC) (F)     (DEG/KT/KT) (MB)    (FT/S)
N MID LAKE BUOY  0650   69 67  180/  8/  8 1015.7R   1/ 3
NORTHPORT PIER   0740   69     150/  6/  9 1014.9S
KEWAUNEE LAKESHO 0730   65     180/  2/  4 1014.7F
SHEBOYGAN LAKESH 0700   71     210/  6/  6 1015.2S
PORT WASHINGTON  0740   67     270/  3/  4 1016.6S
ATWATER BUOY     0609   65 60  180/  4/  4 1015.9F
MILWAUKEE LAKESH 0730   72     170/  1/  2   N/A
S MID LAKE BUOY  0650   74 71  140/  8/ 10 1015.9S   0
KENOSHA   LAKESH 0700   72     180/  7/  8 1015.6
$$

TC  - TEMPERATURE IN CELSIUS
VSB - VISIBILITY IN STATUTE MILES
WCI - WIND CHILL INDEX
HX  - HEAT INDEX





USA.gov is the U.S. government's official web portal to all federal, state and local government web resources and services.